Weather History for KPOF - March, 2013

Change the Weather History Date:

Tuesday, March 26, 2013

  Actual Average (KCGI) Record (KCGI)
Temperature  
Mean Temperature 41 °F 50 °F  
Max Temperature 51 °F 62 °F 82 °F (2007)
Min Temperature 32 °F 39 °F 20 °F (2014)
Degree Days  
Heating Degree Days 24 15  
Month to date heating degree days 489  
Since 1 July heating degree days 3986  
Cooling Degree Days 0 0  
Month to date cooling degree days 0  
Year to date cooling degree days 0  
Moisture  
Dew Point 24 °F    
Average Humidity 57    
Maximum Humidity 79    
Minimum Humidity 32    
Precipitation  
Precipitation 0.00 in 0.16 in 1.35 in (1994)
Month to date precipitation 3.62  
Year to date precipitation 10.50  
Sea Level Pressure  
Sea Level Pressure 30.31 in    
Wind  
Wind Speed 8 mph (NW)    
Max Wind Speed 16 mph    
Max Gust Speed 21 mph    
Visibility 10 miles    
Events      
T = Trace of Precipitation, MM = Missing Value Source: NWS Daily Summary

Daily Weather History Graph

Daily Weather History Graph

Search for Another Location

Airport or City:

Trip Planner

Search our weather history database for the weather conditions in past years. The results will help you decide how hot, cold, wet, or windy it might be!

Date:

Astronomy

Mar. 26, 2013 Rise Set
Actual Time 6:55 AM CDT 7:18 PM CDT
Civil Twilight 6:29 AM CDT 7:44 PM CDT
Nautical Twilight 5:59 AM CDT 8:15 PM CDT
Astronomical Twilight 5:28 AM CDT 8:46 PM CDT
Moon 6:55 PM CDT (3/26) 6:11 AM CDT (3/26)
Length of Visible Light 13h 14m
Length of Day
12h 23m
Waxing Gibbous, 99% of the Moon is Illuminated
Mar 26
Waxing Gibbous
Mar 27
Full
Apr 2
Last Quarter
Apr 10
New
Apr 18
First Quarter

Hourly Weather History & Observations

Time (CDT) Temp. Windchill Dew Point Humidity Pressure Visibility Wind Dir Wind Speed Gust Speed Precip Events Conditions
12:53 AM 33.1 °F 26.9 °F 26.1 °F 75% 30.25 in 10.0 mi WNW 6.9 mph - 0.00 in   Overcast
1:53 AM 33.1 °F 26.9 °F 26.1 °F 75% 30.25 in 10.0 mi WNW 6.9 mph - N/A   Overcast
2:53 AM 33.1 °F 26.9 °F 26.1 °F 75% 30.25 in 10.0 mi WNW 6.9 mph - N/A   Overcast
3:53 AM 32.0 °F 25.6 °F 26.1 °F 79% 30.24 in 10.0 mi WNW 6.9 mph - N/A   Clear
4:53 AM 32.0 °F 25.6 °F 25.0 °F 75% 30.25 in 10.0 mi WNW 6.9 mph - N/A   Clear
5:53 AM 32.0 °F 24.8 °F 25.0 °F 75% 30.26 in 10.0 mi WNW 8.1 mph - N/A   Scattered Clouds
6:53 AM 32.0 °F 25.6 °F 24.1 °F 73% 30.28 in 10.0 mi WNW 6.9 mph - N/A   Clear
7:53 AM 34.0 °F 24.6 °F 24.1 °F 67% 30.31 in 10.0 mi WNW 13.8 mph - N/A   Mostly Cloudy
8:53 AM 36.0 °F 26.3 °F 25.0 °F 64% 30.33 in 10.0 mi NW 16.1 mph 20.7 mph N/A   Clear
9:53 AM 36.0 °F 27.5 °F 25.0 °F 64% 30.35 in 10.0 mi NW 12.7 mph - N/A   Overcast
10:53 AM 41.0 °F 35.2 °F 25.0 °F 53% 30.37 in 10.0 mi WNW 9.2 mph - N/A   Clear
11:53 AM 42.1 °F 37.1 °F 23.0 °F 47% 30.36 in 10.0 mi West 8.1 mph - N/A   Overcast
12:53 PM 45.0 °F 43.5 °F 21.9 °F 40% 30.35 in 10.0 mi Variable 3.5 mph - N/A   Clear
1:53 PM 46.0 °F 44.8 °F 21.0 °F 37% 30.34 in 10.0 mi Variable 3.5 mph - N/A   Partly Cloudy
2:53 PM 48.9 °F - 21.0 °F 33% 30.32 in 10.0 mi WNW 10.4 mph - N/A   Partly Cloudy
3:53 PM 50.0 °F - 23.0 °F 35% 30.31 in 10.0 mi West 8.1 mph - N/A   Partly Cloudy
4:53 PM 50.0 °F - 21.0 °F 32% 30.30 in 10.0 mi NNW 11.5 mph - N/A   Clear
5:53 PM 50.0 °F - 21.9 °F 33% 30.30 in 10.0 mi NW 8.1 mph - N/A   Partly Cloudy
6:53 PM 46.9 °F - 21.9 °F 37% 30.32 in 10.0 mi NW 5.8 mph - N/A   Clear
7:53 PM 43.0 °F 40.3 °F 24.1 °F 47% 30.33 in 10.0 mi NW 4.6 mph - N/A   Clear
8:53 PM 41.0 °F 39.0 °F 25.0 °F 53% 30.34 in 10.0 mi NW 3.5 mph - N/A   Clear
9:53 PM 37.9 °F 35.5 °F 26.1 °F 62% 30.36 in 10.0 mi NE 3.5 mph - N/A   Clear
10:53 PM 36.0 °F 33.3 °F 27.0 °F 70% 30.37 in 10.0 mi North 3.5 mph - N/A   Clear
11:53 PM 37.0 °F 33.3 °F 24.1 °F 59% 30.37 in 10.0 mi NE 4.6 mph - N/A   Clear